[Iaude] MPEC B162: 2024 BN3 [a=0.85,e=0.25,i=8.3,H=27.4]
    mpec at marsden.cfa.harvard.edu 
    mpec at marsden.cfa.harvard.edu
       
    Tue Jan 30 22:08:28 EST 2024
    
    
  
M.P.E.C. 2024-B162                             Issued 2024 January 31, 03:06 UT
     The Minor Planet Electronic Circulars contain information on unusual
         minor planets, routine data on comets and natural satellites,
         and occasional editorial announcements.  They are published
    on behalf of Division F of the International Astronomical Union by the
          Minor Planet Center, Smithsonian Astrophysical Observatory,
                          Cambridge, MA 02138, U.S.A.
			  
             Prepared using the Tamkin Foundation Computer Network
                              MPC at CFA.HARVARD.EDU
            URL https://www.minorplanetcenter.net/    ISSN 1523-6714
                                    2024 BN3                                    
Observations:
     K24B03N*1C2024 01 30.36360008 45 14.846+21 39 45.68               VEB162G96
     K24B03N 1C2024 01 30.37025708 45 02.675+21 38 32.28         19.50GVEB162G96
     K24B03N 1C2024 01 30.38175308 44 41.395+21 36 23.65         19.76GVEB162G96
     K24B03N 1C2024 01 30.46603808 42 05.623+21 20 09.64         19.36GVEB162G96
     K24B03N 1C2024 01 30.46626808 42 05.162+21 20 06.40         19.83GVEB162G96
     K24B03N 1C2024 01 30.46649808 42 04.795+21 20 03.66         19.60GVEB162G96
     K24B03N KB2024 01 30.80578 08 32 21.52 +20 11 50.2          19.1 GXEB162M45
     K24B03N KB2024 01 30.80864 08 32 15.93 +20 11 15.2          19.3 GXEB162M45
     K24B03N KB2024 01 30.81139 08 32 10.62 +20 10 41.7          19.4 GXEB162M45
     K24B03N KB2024 01 30.86011 08 30 38.04 +20 00 30.3          18.6 RZEB162106
     K24B03N KB2024 01 30.86390 08 30 30.63 +19 59 43.7                ZEB162106
     K24B03N KB2024 01 30.86757 08 30 23.27 +19 58 57.3                ZEB162106
     K24B03N KB2024 01 30.87126 08 30 16.02 +19 58 11.5          18.7 RZEB162106
     K24B03N KB2024 01 30.89705308 29 28.97 +19 52 43.6          19.7 GXEB162I93
     K24B03N KB2024 01 30.90032108 29 22.46 +19 52 02.8          20.2 GXEB162I93
     K24B03N KB2024 01 30.90358808 29 15.96 +19 51 21.2          19.7 GXEB162I93
     K24B03N KB2024 01 30.94337208 27 56.63 +19 42 57.3          19.1 GXEB162958
     K24B03N KB2024 01 30.94814008 27 46.97 +19 41 57.4          19.5 GXEB162958
     K24B03N KC2024 01 30.95276408 27 32.76 +19 40 50.9          19.9 GVEB162L01
     K24B03N KB2024 01 30.95287608 27 37.33 +19 40 56.1          19.4 GXEB162958
     K24B03N KC2024 01 30.95375308 27 30.72 +19 40 37.9          19.9 GVEB162L01
     K24B03N KC2024 01 30.95474208 27 28.75 +19 40 24.7          19.7 GVEB162L01
     K24B03N KC2024 01 30.95573008 27 26.75 +19 40 11.8          19.9 GVEB162L01
     K24B03N KC2024 01 30.95583808 27 27.52 +19 40 17.6                VEB162104
     K24B03N KC2024 01 30.95671908 27 24.74 +19 39 58.9          19.8 GVEB162L01
     K24B03N KC2024 01 30.95989608 27 19.25 +19 39 24.7                VEB162104
     K24B03N KC2024 01 30.96530608 27 08.28 +19 38 12.9          19.8 GVEB162104
Observer details:
104 San Marcello Pistoiese.  Observers P. Bacci, M. Maestripieri.  Measurers
    P. Bacci, L. Tesi, G. Fagioli.  0.60-m F4 Reflector + CCD.
106 Crni Vrh.  Observer H. Mikuz.  0.60-m f/3.3 reflector + CMO.
958 Observatoire de Dax.  Observer P. Dupouy.  0.50-m f/4.5 Reflector + CMO.
G96 Mt. Lemmon Survey.  Observer D. Rankin.  Measurers T. Beuden, V. F.
    Carvajal, D. Fay, J. B. Fazekas, D. C. Fuls, A. R. Gibbs, A. D. Grauer, H.
    Groeller, J. K. Hogan, R. A. Kowalski, S. M. Larson, G. J. Leonard, D.
    Rankin, R. L. Seaman, F. C. Shelly, K. W. Wierzchos.  1.5-m reflector +
    10K CCD.
I93 St Pardon de Conques.  Observer F. Losse.  0.40-m f/3.7 reflector + CMO.
L01 Visnjan Observatory, Tican.  Observer K. Korlevic.  1.0-m f/2.9 reflector
    + CCD.
M45 Starhopper Observatory, Sfantu Gheorghe.  Observer F. Ursache.  0.41-m
    f/7.5 reflector + CMO.
Orbital elements:
2024 BN3                                                 Earth MOID = 0.0134 AU
Epoch 2023 Sept. 13.0 TT = JDT 2460200.5                Veres                   
M  54.75553              (2000.0)            P               Q                  
n   1.25654683     Peri.  327.29300     +0.13436190     +0.98471212             
a   0.8505182      Node   310.17621     -0.87512859     +0.06543516             
e   0.2474328      Incl.    8.34229     -0.46486216     +0.16143198             
P   0.78           H   27.49          G   0.15           U   7                  
Residuals in seconds of arc
240130 G96 (2.7-  1.4-)   240130 106  0.3+  0.2-    240130 L01  0.2+  0.1+
240130 G96  0.2-  0.6-    240130 106  1.3+  0.4+    240130 958  0.9-  0.5+
240130 G96  0.5+  0.2-    240130 106  0.2-  0.2-    240130 L01  0.3-  0.1+
240130 G96  0.5+  0.5+    240130 106  0.5+  0.1+    240130 L01  0.2+  0.1-
240130 G96  0.1-  0.0     240130 I93  0.2+  0.1-    240130 L01  0.2+  0.1-
240130 G96  0.7+  0.0     240130 I93  0.1-  0.2+    240130 104  0.4+  0.0
240130 M45  0.1-  0.0     240130 I93  0.1-  0.3-    240130 L01  0.1+  0.0
240130 M45  0.5-  0.1-    240130 958  0.5+  1.2-    240130 104  0.1-  0.4+
240130 M45  0.2+  0.1-    240130 958  0.1+  0.5+    240130 104  0.0   0.2-
Ephemeris:
2024 BN3                 a,e,i = 0.85, 0.25, 8                   q = 0.6401
Date    TT    R. A. (2000) Decl.     Delta      r    Elong.  Phase     V
2024 01 01    11 27 44.5 +32 09 36   0.1449  1.0575   117.2    55.8    25.4
...
2024 01 16    11 14 09.7 +31 25 19   0.08031 1.0401   133.0    43.7    23.8
...
2024 01 24    10 32 55.9 +29 52 57   0.04739 1.0250   148.6    30.1    22.2
...
2024 01 30    08 55 30.2 +22 43 19   0.02617 1.0110   174.8     5.1    20.0
2024 01 31    08 26 03.8 +19 33 18   0.02351 1.0085   173.8     6.0    19.8
2024 02 01    07 51 34.2 +15 17 14   0.02137 1.0059   164.7    15.0    20.0
...
2024 02 07    04 04 38.0 -17 57 52   0.02493 0.9889    95.6    83.0    22.4
...
2024 02 15    02 05 02.1 -28 46 37   0.05241 0.9630    60.7   116.6    25.6
...
2024 03 01    01 00 41.0 -30 39 52   0.1127  0.9055    38.6   137.0    29.0
M. P. C. Staff               (C) Copyright 2024 MPC           M.P.E.C. 2024-B162
    
    
More information about the Iaude
mailing list